sat.trackr.live / text

‹ back to catalog

FLOCK 4BE-14

NORAD 60517 · 2024-149BB

PAYLOAD ACTIVE UNKNOWN

§ Identity

Operator
Country
US
Launch date
2024-08-16
Launch site
AFWTR
Launch vehicle
Mass (kg)
RCS (m²)

Purposes: earth_obs

External: N2YO · Heavens-Above · Gunter

§ Orbital elements

Epoch: 2026-05-25T04:11:31.622784Z

Period
93.50 min
Inclination
97.3694°
Eccentricity
0.0004551
Mean motion
15.40178273 rev/d
Perigee alt
442.5 km
Apogee alt
448.7 km
Semi-major
6,823.7 km
B*
3.9837e-4
RAAN
228.7547°
Arg perigee
40.0906°
Mean anomaly
320.0675°
Rev number
9,878

§ Raw data

FLOCK 4BE-141 60517U 24149BB  26145.17467156  .00015922  00000+0  39837-3 0  99952 60517  97.3694 228.7547 0004551  40.0906 320.0675 15.40178273 98781

JSON: /api/v1/satellites/60517 · /tle

For live sub-satellite position, see the globe view (requires WebGL).

§ Visibility from observer

Set your observer location to see the next 7 days of passes ≥ 10°. The values pass through the URL so the page stays shareable.

No JS? Fill the form by hand. The geolocation button needs JavaScript.